OK1PNK-5 Weather Reports


time (UTC)temp
F
wind
direction
speed
knots
gust
knots
rain 1hr
in
rain 24hr
in
rain mn
in
humidity
%
barometer
mb
20260506013954 56 216 1.7 4.3 0.00 0.00 0.00 85 965.5
20260506012954 56 216 1.7 4.3 0.00 0.00 0.00 85 965.5
20260506011954 56 216 1.7 4.3 0.00 0.00 0.00 85 965.5
20260506010954 56 216 1.7 4.3 0.00 0.00 0.00 85 965.5
20260506005954 56 216 1.7 4.3 0.00 0.00 0.00 85 965.5
20260506004954 56 215 2.6 5.2 0.00 0.00 0.00 85 965.5
20260506003953 56 216 2.6 5.2 0.00 0.00 0.00 85 965.5
20260506002954 57 270 1.7 5.2 0.00 0.00 0.00 85 965.4
20260506001954 57 230 1.7 4.3 0.00 0.00 0.00 85 965.5
20260506000954 57 279 1.7 4.3 0.00 0.00 0.00 85 965.5
20260505235954 57 230 1.7 1.7 0.00 0.00 0.00 85 965.7
20260505234954 57 219 1.7 3.5 0.00 0.00 0.00 85 965.8
20260505233954 58 219 1.7 4.3 0.00 0.00 0.00 85 965.7
20260505232954 58 225 1.7 4.3 0.00 0.00 0.00 85 965.6
20260505231954 58 229 1.7 3.5 0.00 0.00 0.00 84 965.7
20260505230954 58 218 1.7 4.3 0.00 0.00 0.00 84 965.7
20260505225954 58 217 1.7 4.3 0.00 0.00 0.00 84 965.6
20260505224954 58 229 1.7 4.3 0.00 0.00 0.00 84 965.4
20260505223954 58 227 1.7 3.5 0.00 0.00 0.00 84 965.3
20260505222954 58 236 1.7 4.3 0.00 0.00 0.00 85 965.3
20260505221954 58 225 1.7 4.3 0.00 0.00 0.00 85 965.3
20260505220954 59 225 1.7 4.3 0.00 0.00 0.34 85 965.3
20260505215954 59 233 1.7 4.3 0.00 0.00 0.34 85 965.1
20260505214954 59 253 1.7 5.2 0.00 0.00 0.34 84 965.2
20260505213954 59 279 3.5 7.8 0.00 0.00 0.33 83 965.5
20260505212954 59 279 3.5 7.8 0.00 0.00 0.33 83 965.5
20260505211954 59 279 3.5 7.8 0.00 0.00 0.33 83 965.5
20260505210954 59 279 3.5 7.8 0.00 0.00 0.33 83 965.5
20260505205954 59 279 3.5 7.8 0.00 0.00 0.33 83 965.5
20260505204954 60 285 4.3 7.8 0.00 0.00 0.33 82 965.3
20260505203954 60 284 1.7 5.2 0.00 0.00 0.33 82 965.3
20260505202954 60 225 1.7 4.3 0.00 0.00 0.33 82 965.4
20260505201954 60 216 2.6 7.0 0.00 0.00 0.33 83 965.5
20260505200954 60 255 1.7 3.5 0.02 0.00 0.33 83 965.2
20260505195954 60 255 1.7 3.5 0.03 0.00 0.33 83 965.2
20260505194954 60 315 1.7 7.0 0.08 0.00 0.33 83 964.7
20260505193954 61 310 2.6 7.8 0.08 0.00 0.33 83 964.6
20260505192954 61 289 5.2 11.3 0.09 0.00 0.33 83 964.7
20260505191954 61 289 5.2 11.3 0.09 0.00 0.33 83 964.7
20260505190954 62 297 5.2 13.0 0.07 0.00 0.31 80 964.1
20260505185954 64 282 5.2 13.9 0.02 0.00 0.26 78 964.5
20260505184954 64 282 5.2 13.9 0.02 0.00 0.26 78 964.5
20260505183954 64 183 2.6 7.0 0.01 0.00 0.25 76 963.9
20260505182954 65 99 3.5 9.6 0.02 0.00 0.24 75 962.4
20260505181954 65 99 3.5 9.6 0.13 0.00 0.24 75 962.4
20260505180954 65 103 1.7 6.1 0.23 0.00 0.24 75 962.1
20260505175954 65 333 3.5 12.2 0.24 0.00 0.24 75 961.9
20260505174954 66 336 4.3 12.2 0.24 0.00 0.24 73 962.0
20260505173954 67 337 4.3 10.4 0.24 0.00 0.24 69 962.4
20260505172953 69 315 1.7 6.1 0.22 0.00 0.22 64 962.8
20260505171954 70 320 1.7 2.6 0.11 0.00 0.11 59 963.4
20260505170954 71 107 3.5 10.4 0.01 0.00 0.01 53 963.1
20260505165953 71 333 3.5 9.6 0.00 0.00 0.00 50 962.1
20260505164954 71 333 3.5 9.6 0.00 0.00 0.00 50 962.1
20260505163954 72 329 3.5 9.6 0.00 0.00 0.00 46 962.2
20260505162954 74 332 5.2 11.3 0.00 0.00 0.00 43 962.3
20260505160223 76 330 4.3 11.3 0.00 0.00 0.00 39 962.4
20260505153223 78 315 1.7 4.3 0.00 0.00 0.00 35 962.6
20260505152223 78 32 0.9 5.2 0.00 0.00 0.00 30 962.7
20260505151223 78 161 0.9 1.7 0.00 0.00 0.00 30 962.7
20260505150223 79 5 0.9 2.6 0.00 0.00 0.00 29 962.7
20260505140223 80 128 0.9 3.5 0.00 0.00 0.00 29 963.5
20260505130223 80 251 1.7 3.5 0.00 0.00 0.00 30 964.0
20260505124223 80 292 1.7 5.2 0.00 0.00 0.00 30 964.2
20260505123223 80 138 3.5 7.0 0.00 0.00 0.00 30 964.3
20260505122223 80 78 1.7 3.5 0.00 0.00 0.00 30 964.4
20260505121223 80 360 1.7 5.2 0.00 0.00 0.00 31 964.4
20260505120223 80 336 1.7 4.3 0.00 0.00 0.00 31 964.4
20260505115223 80 315 1.7 4.3 0.00 0.00 0.00 34 964.5
20260505114223 79 110 1.7 5.2 0.00 0.00 0.00 33 964.6
20260505113223 78 56 1.7 2.6 0.00 0.00 0.00 34 964.7
20260505112223 78 285 1.7 5.2 0.00 0.00 0.00 35 964.9
20260505111223 78 345 1.7 5.2 0.00 0.00 0.00 36 964.9
20260505110223 77 129 0.9 5.2 0.00 0.00 0.00 37 965.0
20260505101223 75 131 3.5 7.0 0.00 0.00 0.00 44 965.6
20260505100223 75 131 3.5 7.0 0.00 0.00 0.00 44 965.6
20260505095223 74 107 1.7 5.2 0.00 0.00 0.00 45 965.8
20260505094223 73 104 2.6 7.0 0.00 0.00 0.00 47 965.9
20260505093223 73 104 2.6 7.0 0.00 0.00 0.00 47 965.9
20260505092223 72 45 1.7 5.2 0.00 0.00 0.00 50 966.1
20260505091223 71 161 1.7 5.2 0.00 0.00 0.00 50 966.2
20260505090223 71 123 1.7 5.2 0.00 0.00 0.00 52 966.3
20260505085223 71 123 1.7 5.2 0.00 0.00 0.00 52 966.3
20260505084223 69 135 1.7 3.5 0.00 0.00 0.00 52 966.4
20260505081223 67 11 0.9 3.5 0.00 0.00 0.00 56 966.6
20260505080223 66 142 1.7 3.5 0.00 0.00 0.00 58 966.8
20260505075223 66 142 1.7 3.5 0.00 0.00 0.00 58 966.8
20260505074223 65 9 0.9 2.6 0.00 0.00 0.00 59 966.8
20260505073223 64 90 0.9 2.6 0.00 0.00 0.00 60 967.0
20260505072223 64 90 0.9 2.6 0.00 0.00 0.00 60 967.0
20260505071223 64 315 0.9 1.7 0.00 0.00 0.00 61 967.1
20260505070223 63 90 1.7 5.2 0.00 0.00 0.00 63 967.1
20260505065223 63 90 1.7 5.2 0.00 0.00 0.00 63 967.1
20260505063223 60 90 0.9 2.6 0.00 0.00 0.00 63 967.4
20260505062223 60 90 0.9 2.6 0.00 0.00 0.00 63 967.4
20260505061223 60 315 0.9 1.7 0.00 0.00 0.00 63 967.5
20260505060223 60 90 0.9 1.7 0.00 0.00 0.00 63 967.5
20260505055223 59 315 0.9 1.7 0.00 0.00 0.00 63 967.3
20260505054223 59 315 0.9 1.7 0.00 0.00 0.00 63 967.3
20260505053223 59 315 0.9 1.7 0.00 0.00 0.00 63 967.4
20260505052223 59 196 0.9 2.6 0.00 0.00 0.00 62 967.5
20260505051223 59 196 0.9 2.6 0.00 0.00 0.00 62 967.5
20260505050223 59 184 0.9 1.7 0.00 0.00 0.00 61 967.4
20260505041223 60 333 0.9 1.7 0.00 0.00 0.00 59 967.5
20260505040223 60 333 0.9 1.7 0.00 0.00 0.00 59 967.5
20260505035223 60 315 0.9 1.7 0.00 0.00 0.00 58 967.5
20260505034223 61 174 0.9 1.7 0.00 0.00 0.00 56 967.8
20260505033223 61 174 0.9 1.7 0.00 0.00 0.00 56 967.8
20260505032223 61 174 0.9 1.7 0.00 0.00 0.00 56 967.8
20260505031223 61 174 0.9 1.7 0.00 0.00 0.00 56 967.8
20260505030223 61 174 0.9 1.7 0.00 0.00 0.00 56 967.8
20260505025223 61 344 0.9 2.6 0.00 0.00 0.00 56 967.8
20260505024223 61 344 0.9 2.6 0.00 0.00 0.00 56 967.8
20260505023223 61 90 0.9 1.7 0.00 0.00 0.00 55 967.9
20260505022223 62 333 0.9 1.7 0.00 0.00 0.00 55 967.9
20260505021223 62 225 0.9 1.7 0.00 0.00 0.00 54 968.0
20260505020223 62 225 0.9 1.7 0.00 0.00 0.00 54 968.0
20260505015223 62 270 0.9 1.7 0.00 0.00 0.00 53 968.1